Location: Cincinnati Observatory Center
(39.1389°N, 84.4225°W)
Time: 06:52:11
(UTC-04:00)

Amateur Radio Satellites - All Passes

Search period start: 25 July 2017 06:22
Search period end: 26 July 2017 06:22
Location: Cincinnati Observatory Center, 39.1389°N, 84.4225°W

Satellite Date Start Highest point End Downlink Frequencies (MHz)
Time Altitude Azimuth
SO-50 25 Jul 06:36:12 06:40:06 29° 113° (ESE) 06:43:59 436.795
ITAMSAT 1 25 Jul 06:36:52 06:40:19 18° 297° (WNW) 06:43:44 435.822/435.867
CUTE-I 25 Jul 06:44:48 06:47:43 15° 91° (E) 06:50:37 437.470
STRAND 1 25 Jul 06:47:24 06:49:33 13° 60° (ENE) 06:51:42 437.568
XW-2C 25 Jul 06:51:35 06:53:53 16° 93° (E) 06:56:13 145.795 - 145.815
NUDT-PHONESAT 25 Jul 06:59:46 07:01:45 14° 93° (E) 07:03:42 437.300
YUBILEINY 25 Jul 06:59:59 07:08:47 76° 82° (E) 07:17:29 435.215
DOVE 4 25 Jul 07:12:18 07:17:36 86° 103° (ESE) 07:22:40 437.250
KAITUO 1B 25 Jul 07:13:18 07:16:13 22° 95° (E) 07:19:08 145.475/437.950
LilacSat-2 25 Jul 07:14:00 07:17:25 31° 97° (E) 07:20:50 437.200
AO-7 25 Jul 07:22:16 07:28:09 22° 307° (NW) 07:34:02 .
XW-2F 25 Jul 07:28:24 07:31:59 43° 99° (E) 07:35:35 145.980 - 146.000
XW-2D 25 Jul 07:57:03 08:00:48 69° 284° (WNW) 08:04:32 145.860 - 145.880
PCSat 25 Jul 08:02:40 08:05:23 14° 318° (NW) 08:08:06 145.827
XW-2B 25 Jul 08:07:10 08:10:51 53° 285° (WNW) 08:14:31 145.730 - 145.750
SO-50 25 Jul 08:16:28 08:20:28 30° 310° (NW) 08:24:29 436.795
XW-2A 25 Jul 08:17:39 08:19:11 13° 93° (E) 08:20:42 145.665 - 145.685
STRAND 1 25 Jul 08:22:52 08:28:01 80° 257° (WSW) 08:33:12 437.568
CUTE-I 25 Jul 08:22:52 08:28:11 65° 287° (WNW) 08:33:28 437.470
XW-2C 25 Jul 08:24:48 08:28:08 31° 288° (WNW) 08:31:29 145.795 - 145.815
CUBEBUG 2 25 Jul 08:26:38 08:29:24 17° 92° (E) 08:32:08 437.445
HO-68 25 Jul 08:28:46 08:35:33 43° 99° (E) 08:42:15 435.675
NUDT-PHONESAT 25 Jul 08:32:24 08:35:43 33° 288° (WNW) 08:39:02 437.300
CUTE 1.7 + AOD 2 25 Jul 08:45:28 08:49:40 59° 101° (E) 08:53:52 437.475
KAITUO 1B 25 Jul 08:47:12 08:50:07 22° 290° (WNW) 08:53:02 145.475/437.950
LilacSat-2 25 Jul 08:49:02 08:51:26 16° 292° (WNW) 08:53:49 437.200
DOVE 4 25 Jul 08:52:28 08:54:25 12° 300° (WNW) 08:56:21 437.250
SEEDS 25 Jul 08:57:38 09:01:45 50° 100° (E) 09:05:51 437.485
YUBILEINY 25 Jul 08:58:32 09:04:33 21° 280° (W) 09:10:33 435.215
XW-2F 25 Jul 09:04:12 09:05:43 12° 294° (WNW) 09:07:14 145.980 - 146.000
FO-29 25 Jul 09:06:46 09:12:58 28° 62° (ENE) 09:19:17 435.910
UWE-3 25 Jul 09:23:32 09:27:33 44° 99° (E) 09:31:29 435.000/436.395/437.385
ZACube-1 25 Jul 09:37:12 09:40:59 33° 97° (E) 09:44:43 437.345
AAUSAT CUBESAT 2 25 Jul 09:40:54 09:45:05 73° 102° (ESE) 09:49:15 437.432
PRISM 25 Jul 09:42:07 09:43:53 13° 64° (ENE) 09:45:38 437.425
UNISAT 6 25 Jul 09:45:26 09:48:40 19° 66° (ENE) 09:51:52 437.425
XW-2A 25 Jul 09:49:03 09:51:59 29° 288° (WNW) 09:54:53 145.665 - 145.685
CUBEBUG 2 25 Jul 10:02:16 10:06:10 35° 288° (WNW) 10:09:58 437.445
Oscar 11 25 Jul 10:02:56 10:07:05 45° 99° (E) 10:11:13 .
HO-68 25 Jul 10:16:45 10:23:04 35° 296° (WNW) 10:29:23 435.675
AO-73 25 Jul 10:17:05 10:21:14 89° 279° (W) 10:25:21 145.935
CUTE 1.7 + AOD 2 25 Jul 10:23:25 10:24:58 12° 296° (WNW) 10:26:31 437.475
TIGRISAT 25 Jul 10:28:12 10:32:40 48° 73° (ENE) 10:37:04 435.000
SEEDS 25 Jul 10:34:53 10:36:59 14° 295° (WNW) 10:39:04 437.485
M-CUBED/EXP-1 PRIME 25 Jul 10:36:17 10:39:31 31° 65° (ENE) 10:43:01 437.505
DELFI C3 25 Jul 10:42:28 10:46:00 29° 96° (E) 10:49:32 145.870
FO-29 25 Jul 10:49:48 10:57:17 66° 259° (W) 11:05:09 435.910
UWE-3 25 Jul 11:01:18 11:03:37 15° 295° (WNW) 11:05:53 435.000/436.395/437.385
EO-88 25 Jul 11:07:11 11:10:33 34° 98° (E) 11:13:53 145.990 - 145.960
ZACube-1 25 Jul 11:14:09 11:17:01 18° 293° (WNW) 11:19:52 437.345
PRISM 25 Jul 11:14:41 11:18:40 52° 259° (W) 11:22:42 437.425
NO-84 25 Jul 11:16:36 11:19:10 27° 128° (SE) 11:21:52 435.350 FM
UNISAT 6 25 Jul 11:20:38 11:25:03 42° 262° (W) 11:29:25 437.425
Oscar 11 25 Jul 11:40:18 11:42:49 15° 294° (WNW) 11:45:21 .
DUCHIFAT 1 25 Jul 11:40:57 11:43:07 14° 65° (ENE) 11:45:16 145.980
POLYITAN 1 25 Jul 11:42:54 11:45:50 18° 67° (ENE) 11:48:46 437.675
QB50P2 25 Jul 11:55:11 11:58:47 27° 69° (ENE) 12:02:23 145.880/145.840
TIGRISAT 25 Jul 12:06:44 12:09:33 16° 268° (W) 12:12:19 435.000
EO-79 25 Jul 12:06:53 12:10:42 33° 71° (ENE) 12:14:32 145.935-145.965
NANOSAT C BR1 25 Jul 12:06:53 12:10:35 30° 70° (ENE) 12:14:17 145.865
M-CUBED/EXP-1 PRIME 25 Jul 12:11:46 12:14:05 16° 263° (W) 12:16:31 437.505
DELFI C3 25 Jul 12:17:40 12:20:33 19° 292° (WNW) 12:23:27 145.870
AIST 2D 25 Jul 12:27:05 12:30:29 52° 260° (W) 12:33:54 435.315
EO-88 25 Jul 12:41:59 12:43:53 14° 293° (WNW) 12:45:47 145.990 - 145.960
FO-29 25 Jul 12:42:21 12:43:37 10° 277° (W) 12:44:53 435.910
LO-87 25 Jul 12:43:55 12:47:32 77° 102° (ESE) 12:51:06 145.935 - 145.965
Oscar 19 25 Jul 12:46:05 12:47:16 11° 59° (ENE) 12:48:28 437.125/150
ESTCUBE 1 25 Jul 12:46:50 12:51:11 45° 99° (E) 12:55:31 437.505/2401.250
BEESAT 3 25 Jul 12:48:28 12:51:44 25° 113° (ESE) 12:55:02 437.485
NO-84 25 Jul 12:54:00 12:56:35 23° 327° (NNW) 12:59:19 435.350 FM
Gurwin Techsat 1B 25 Jul 13:12:55 13:15:25 14° 60° (ENE) 13:17:55 435.225
DUCHIFAT 1 25 Jul 13:14:12 13:18:19 50° 260° (W) 13:22:28 145.980
POLYITAN 1 25 Jul 13:17:22 13:21:19 37° 262° (W) 13:25:18 437.675
PCSat 25 Jul 13:23:58 13:25:35 11° 39° (NE) 13:27:12 145.827
BEESAT 2 25 Jul 13:29:05 13:32:12 22° 112° (ESE) 13:35:22 435.950
QB50P2 25 Jul 13:31:02 13:34:30 24° 265° (W) 13:37:59 145.880/145.840
VELOX 1 25 Jul 13:31:36 13:35:29 28° 96° (E) 13:39:20 145.980
BUGSAT 1 25 Jul 13:41:32 13:45:47 89° 267° (W) 13:50:02 437.445
NANOSAT C BR1 25 Jul 13:43:00 13:46:17 22° 265° (W) 13:49:34 145.865
EO-79 25 Jul 13:43:24 13:46:30 19° 266° (W) 13:49:37 145.935-145.965
50 SAT 25 Jul 13:45:26 13:47:12 13° 93° (E) 13:48:57 437.505
AO-85 25 Jul 13:48:32 13:52:31 66° 302° (WNW) 13:56:26 145.980
UKube-1 25 Jul 14:18:45 14:21:43 18° 94° (E) 14:24:40 .
SPROUT 25 Jul 14:19:50 14:24:04 65° 285° (WNW) 14:28:15 437.525
Oscar 19 25 Jul 14:20:40 14:25:47 89° 71° (ENE) 14:30:56 437.125/150
ESTCUBE 1 25 Jul 14:24:41 14:27:37 17° 295° (WNW) 14:30:32 437.505/2401.250
BEESAT 3 25 Jul 14:25:44 14:29:12 28° 309° (NW) 14:32:43 437.485
AO-7 25 Jul 14:35:38 14:41:51 24° 54° (NE) 14:48:04 .
Gurwin Techsat 1B 25 Jul 14:49:20 14:54:39 79° 257° (WSW) 14:59:59 435.225
PCSat 25 Jul 15:04:41 15:10:05 63° 59° (ENE) 15:15:26 145.827
BEESAT 2 25 Jul 15:06:15 15:09:48 30° 309° (NW) 15:13:24 435.950
O/OREOS (USA 219) 25 Jul 15:07:53 15:10:40 16° 100° (E) 15:13:28 437.305
VELOX 1 25 Jul 15:08:09 15:11:47 25° 292° (WNW) 15:15:24 145.980
SO-50 25 Jul 15:08:13 15:11:46 22° 47° (NE) 15:15:19 436.795
DX 1 25 Jul 15:11:43 15:16:07 73° 284° (WNW) 15:20:28 434.975-435.025
50 SAT 25 Jul 15:16:57 15:19:59 29° 288° (WNW) 15:23:00 437.505
UKube-1 25 Jul 15:53:51 15:57:50 37° 289° (WNW) 16:01:49 .
BEESAT 25 Jul 16:00:01 16:03:49 23° 95° (E) 16:07:36 436.000
ITAMSAT 1 25 Jul 16:12:53 16:18:05 77° 75° (ENE) 16:23:21 435.822/435.867
ITUPSAT 1 25 Jul 16:13:12 16:17:26 31° 97° (E) 16:21:39 437.325
RS-15 25 Jul 16:16:16 16:27:59 58° 112° (ESE) 16:39:55 29.354- 29.394
AO-7 25 Jul 16:25:20 16:33:42 80° 253° (WSW) 16:42:08 .
O/OREOS (USA 219) 25 Jul 16:45:25 16:49:41 42° 296° (WNW) 16:53:58 437.305
SO-50 25 Jul 16:48:04 16:52:24 44° 244° (WSW) 16:56:45 436.795
PCSat 25 Jul 16:49:37 16:52:53 16° 256° (WSW) 16:56:09 145.827
MOZHAYETS 4 25 Jul 16:56:27 17:01:00 72° 102° (ESE) 17:05:33
CUBESAT XI-V 25 Jul 17:32:26 17:36:39 33° 97° (E) 17:40:52 437.345
KKS-1 25 Jul 17:35:17 17:38:17 17° 93° (E) 17:41:15 437.445
BEESAT 25 Jul 17:37:21 17:41:37 34° 290° (WNW) 17:45:52 436.000
NO-84 25 Jul 17:50:09 17:53:01 20° 31° (NNE) 17:56:03 435.350 FM
ITUPSAT 1 25 Jul 17:51:12 17:55:07 26° 293° (WNW) 17:58:59 437.325
LilacSat-2 25 Jul 17:55:59 17:58:03 14° 67° (ENE) 18:00:07 437.200
ITAMSAT 1 25 Jul 17:56:15 17:58:05 12° 270° (W) 17:59:56 435.822/435.867
STARS 25 Jul 18:04:09 18:06:34 14° 92° (E) 18:08:57 437.465
CUTE-I 25 Jul 18:05:01 18:09:09 23° 65° (ENE) 18:13:19 437.470
YUBILEINY 25 Jul 18:07:12 18:12:09 17° 77° (ENE) 18:17:06 435.215
XW-2F 25 Jul 18:08:55 18:11:29 18° 69° (ENE) 18:14:03 145.980 - 146.000
DOVE 4 25 Jul 18:15:47 18:20:37 74° 76° (ENE) 18:25:46 437.250
AO-7 25 Jul 18:23:39 18:27:36 14° 271° (W) 18:31:35 .
RS-15 25 Jul 18:29:13 18:40:52 47° 315° (NW) 18:52:40 29.354- 29.394
MOZHAYETS 4 25 Jul 18:36:08 18:37:32 11° 298° (WNW) 18:38:55
XW-2D 25 Jul 18:36:53 18:40:27 43° 74° (ENE) 18:44:02 145.860 - 145.880
XW-2B 25 Jul 18:46:50 18:50:31 56° 75° (ENE) 18:54:12 145.730 - 145.750
HO-68 25 Jul 18:56:45 19:02:45 30° 62° (ENE) 19:08:44 435.675
XW-2C 25 Jul 19:04:08 19:07:53 82° 258° (WSW) 19:11:39 145.795 - 145.815
NUDT-PHONESAT 25 Jul 19:09:43 19:13:23 85° 77° (ENE) 19:17:05 437.300
CUBESAT XI-V 25 Jul 19:10:06 19:13:50 24° 292° (WNW) 19:17:34 437.345
KKS-1 25 Jul 19:10:47 19:14:59 40° 289° (WNW) 19:19:08 437.445
CUBEBUG 2 25 Jul 19:23:48 19:26:30 15° 65° (ENE) 19:29:09 437.445
KAITUO 1B 25 Jul 19:25:01 19:28:39 57° 260° (W) 19:32:17 145.475/437.950
NO-84 25 Jul 19:26:53 19:30:48 67° 226° (SW) 19:34:58 435.350 FM
LilacSat-2 25 Jul 19:28:31 19:32:00 36° 262° (W) 19:35:30 437.200
CUTE 1.7 + AOD 2 25 Jul 19:36:55 19:40:44 35° 72° (ENE) 19:44:34 437.475
STARS 25 Jul 19:38:54 19:43:08 47° 288° (WNW) 19:47:20 437.465
XW-2F 25 Jul 19:42:12 19:45:25 27° 264° (W) 19:48:37 145.980 - 146.000
CUTE-I 25 Jul 19:43:47 19:48:53 44° 261° (W) 19:54:02 437.470
SEEDS 25 Jul 19:48:15 19:51:50 29° 71° (ENE) 19:55:26 437.485
DOVE 4 25 Jul 19:57:18 19:58:54 11° 273° (W) 20:00:31 437.250
YUBILEINY 25 Jul 19:58:45 20:07:36 89° 101° (E) 20:16:30 435.215
ISS 25 Jul 20:13:43 20:14:48 11° 128° (SE) 20:15:52 437.550
XW-2D 25 Jul 20:13:44 20:14:51 11° 269° (W) 20:15:58 145.860 - 145.880
XW-2A 25 Jul 20:18:23 20:21:44 66° 76° (ENE) 20:25:05 145.665 - 145.685
UWE-3 25 Jul 20:18:59 20:23:03 33° 71° (ENE) 20:27:04 435.000/436.395/437.385
Tancredo 1 25 Jul 20:25:36 20:28:24 45° 138° (SE) 20:31:14 437.200
AAUSAT CUBESAT 2 25 Jul 20:29:41 20:33:30 38° 72° (ENE) 20:37:20 437.432
ZACube-1 25 Jul 20:31:51 20:35:27 25° 69° (ENE) 20:39:00 437.345
STRAND 1 25 Jul 20:34:43 20:39:28 37° 98° (E) 20:44:10 437.568
HO-68 25 Jul 20:43:07 20:50:05 53° 259° (W) 20:57:05 435.675
RS-15 25 Jul 20:48:58 20:57:42 21° 346° (NNW) 21:06:20 29.354- 29.394
nSIGHT-1 25 Jul 20:53:16 20:56:09 31° 134° (SE) 20:59:03 .
Oscar 11 25 Jul 20:56:38 21:00:23 30° 70° (ENE) 21:04:08 .
CUBEBUG 2 25 Jul 20:58:02 21:02:39 54° 260° (W) 21:07:11 437.445
BEESAT 3 25 Jul 21:06:48 21:08:45 13° 43° (NE) 21:10:40 437.485
AO-73 25 Jul 21:10:47 21:15:08 59° 75° (ENE) 21:19:25 145.935
CUTE 1.7 + AOD 2 25 Jul 21:13:49 21:16:39 18° 267° (W) 21:19:29 437.475
SEEDS 25 Jul 21:24:23 21:27:31 21° 266° (W) 21:30:40 437.485
DELFI C3 25 Jul 21:27:43 21:30:01 15° 67° (ENE) 21:32:20 145.870
EO-88 25 Jul 21:45:08 21:46:59 14° 67° (ENE) 21:48:51 145.990 - 145.960
ISS 25 Jul 21:47:37 21:50:51 68° 323° (NW) 21:54:06 437.550
BEESAT 2 25 Jul 21:48:12 21:50:03 13° 43° (NE) 21:51:53 435.950
UWE-3 25 Jul 21:55:57 21:59:30 22° 265° (W) 22:03:02 435.000/436.395/437.385
YUBILEINY 25 Jul 21:59:53 22:05:37 19° 296° (WNW) 22:11:24 435.215
Tancredo 1 25 Jul 22:01:43 22:03:57 19° 334° (NNW) 22:06:12 437.200
FO-29 25 Jul 22:03:13 22:08:17 21° 89° (E) 22:12:55 435.910
AAUSAT CUBESAT 2 25 Jul 22:06:41 22:09:06 15° 268° (W) 22:11:32 437.432
ZACube-1 25 Jul 22:07:46 22:11:36 28° 264° (W) 22:15:23 437.345
STRAND 1 25 Jul 22:14:20 22:18:25 25° 294° (WNW) 22:22:29 437.568
AO-85 25 Jul 22:19:51 22:24:05 70° 58° (ENE) 22:28:37 145.980
nSIGHT-1 25 Jul 22:29:42 22:32:33 28° 331° (NNW) 22:35:24 .
Oscar 11 25 Jul 22:33:12 22:36:31 21° 266° (W) 22:39:51 .
BEESAT 3 25 Jul 22:42:47 22:46:45 67° 242° (WSW) 22:50:39 437.485
AO-73 25 Jul 22:50:15 22:51:40 11° 269° (W) 22:53:06 145.935
PRISM 25 Jul 22:57:27 23:00:42 22° 95° (E) 23:03:56 437.425
DELFI C3 25 Jul 23:00:47 23:04:27 37° 262° (W) 23:08:09 145.870
RS-15 25 Jul 23:06:59 23:16:27 25° 23° (NNE) 23:25:35 29.354- 29.394
UNISAT 6 25 Jul 23:13:21 23:17:27 41° 98° (E) 23:21:28 437.425
EO-88 25 Jul 23:16:59 23:20:19 35° 262° (W) 23:23:41 145.990 - 145.960
LO-87 25 Jul 23:19:00 23:22:00 25° 71° (ENE) 23:25:01 145.935 - 145.965
BEESAT 2 25 Jul 23:24:14 23:28:17 73° 240° (WSW) 23:32:16 435.950
ISS 25 Jul 23:25:53 23:27:49 15° 341° (NNW) 23:29:45 437.550
ESTCUBE 1 25 Jul 23:45:12 23:49:15 35° 71° (ENE) 23:53:21 437.505/2401.250
FO-29 25 Jul 23:46:57 23:53:56 61° 289° (WNW) 00:00:04 435.910
M-CUBED/EXP-1 PRIME 25 Jul 23:49:02 23:53:15 33° 102° (ESE) 23:57:27 437.505
AIST 2D 25 Jul 23:54:56 23:56:05 11° 92° (E) 23:57:13 435.315
TIGRISAT 25 Jul 23:57:16 00:01:33 65° 285° (WNW) 00:05:44 435.000
AO-85 26 Jul 00:02:45 00:04:01 11° 251° (WSW) 00:05:19 145.980
nSIGHT-1 26 Jul 00:09:13 00:09:48 10° 350° (N) 00:10:23 .
VELOX 1 26 Jul 00:27:56 00:31:24 23° 67° (ENE) 00:34:53 145.980
PRISM 26 Jul 00:32:21 00:35:56 28° 290° (WNW) 00:39:31 437.425
UNISAT 6 26 Jul 00:51:07 00:53:47 16° 295° (WNW) 00:56:26 437.425
LO-87 26 Jul 00:52:48 00:55:23 18° 266° (W) 00:58:00 145.935 - 145.965
DUCHIFAT 1 26 Jul 00:59:30 01:03:01 26° 96° (E) 01:06:29 145.980
JUGNU 26 Jul 01:02:57 01:04:27 11° 177° (S) 01:05:58 437.505
POLYITAN 1 26 Jul 01:03:01 01:06:54 36° 98° (E) 01:10:45 437.675
SPROUT 26 Jul 01:11:24 01:15:41 80° 75° (ENE) 01:20:00 437.525
UKube-1 26 Jul 01:12:55 01:15:11 14° 64° (ENE) 01:17:28 .
QB50P2 26 Jul 01:15:55 01:20:05 57° 100° (E) 01:24:12 145.880/145.840
Tancredo 1 26 Jul 01:16:25 01:16:50 10° 14° (NNE) 01:17:15 437.200
O/OREOS (USA 219) 26 Jul 01:17:22 01:21:13 27° 61° (ENE) 01:25:03 437.305
RS-15 26 Jul 01:20:02 01:32:05 64° 52° (NE) 01:43:28 29.354- 29.394
ESTCUBE 1 26 Jul 01:22:52 01:26:08 20° 266° (W) 01:29:25 437.505/2401.250
M-CUBED/EXP-1 PRIME 26 Jul 01:23:39 01:27:27 26° 297° (WNW) 01:31:17 437.505
BUGSAT 1 26 Jul 01:26:03 01:28:06 13° 92° (E) 01:30:07 437.445
AIST 2D 26 Jul 01:26:12 01:29:25 36° 287° (WNW) 01:32:38 435.315
NANOSAT C BR1 26 Jul 01:27:05 01:31:15 63° 101° (E) 01:35:23 145.865
EO-79 26 Jul 01:27:37 01:31:50 72° 102° (ESE) 01:36:00 145.935-145.965
FO-29 26 Jul 01:35:56 01:37:18 11° 309° (NW) 01:38:39 435.910
50 SAT 26 Jul 01:46:26 01:49:47 71° 76° (ENE) 01:53:12 437.505
nSIGHT-1 26 Jul 01:46:32 01:47:24 11° 11° (N) 01:48:17 .
VELOX 1 26 Jul 02:03:44 02:07:39 31° 263° (W) 02:11:37 145.980
DX 1 26 Jul 02:05:38 02:09:59 83° 76° (ENE) 02:14:23 434.975-435.025
Oscar 19 26 Jul 02:33:34 02:38:14 34° 97° (E) 02:42:54 437.125/150
DUCHIFAT 1 26 Jul 02:35:12 02:38:34 24° 291° (WNW) 02:41:54 145.980
POLYITAN 1 26 Jul 02:39:33 02:42:23 18° 293° (WNW) 02:45:14 437.675
ISS 26 Jul 02:40:40 02:42:58 18° 22° (NNE) 02:45:16 437.550
UKube-1 26 Jul 02:46:34 02:50:45 51° 260° (W) 02:54:59 .
Tancredo 1 26 Jul 02:50:06 02:52:53 38° 33° (NNE) 02:55:40 437.200
QB50P2 26 Jul 02:53:44 02:55:21 12° 296° (WNW) 02:56:58 145.880/145.840
O/OREOS (USA 219) 26 Jul 02:56:45 03:00:31 27° 257° (WSW) 03:04:17 437.305
BUGSAT 1 26 Jul 02:59:47 03:03:40 43° 288° (WNW) 03:07:29 437.445
NANOSAT C BR1 26 Jul 03:05:17 03:06:23 11° 297° (WNW) 03:07:31 145.865
BEESAT 26 Jul 03:05:21 03:09:12 25° 67° (ENE) 03:13:04 436.000
Gurwin Techsat 1B 26 Jul 03:06:47 03:11:53 45° 99° (E) 03:16:56 435.225
ITUPSAT 1 26 Jul 03:18:45 03:23:01 33° 69° (ENE) 03:27:17 437.325
nSIGHT-1 26 Jul 03:21:39 03:24:36 32° 31° (NNE) 03:27:32 .
RS-15 26 Jul 03:33:23 03:43:49 38° 255° (WSW) 03:53:49 29.354- 29.394
SRMSAT 26 Jul 03:54:06 03:55:30 11° 177° (S) 03:56:54 437.500
MOZHAYETS 4 26 Jul 03:56:52 04:01:22 59° 74° (ENE) 04:05:52
Oscar 19 26 Jul 04:13:03 04:17:24 28° 293° (WNW) 04:21:45 437.125/150
ISS 26 Jul 04:16:31 04:19:47 79° 218° (SW) 04:23:02 437.550
Tancredo 1 26 Jul 04:26:02 04:28:05 17° 228° (SW) 04:30:07 437.200
ITAMSAT 1 26 Jul 04:27:20 04:31:50 29° 96° (E) 04:36:17 435.822/435.867
AO-7 26 Jul 04:28:39 04:36:16 38° 99° (E) 04:43:48 .
KKS-1 26 Jul 04:32:48 04:35:24 15° 64° (ENE) 04:38:00 437.445
CUBESAT XI-V 26 Jul 04:34:45 04:38:39 28° 69° (ENE) 04:42:33 437.345
BEESAT 26 Jul 04:42:31 04:46:48 33° 263° (W) 04:51:06 436.000
Gurwin Techsat 1B 26 Jul 04:47:26 04:51:30 23° 295° (WNW) 04:55:33 435.225
ITUPSAT 1 26 Jul 04:56:58 05:00:51 24° 265° (W) 05:04:44 437.325
nSIGHT-1 26 Jul 04:58:09 05:00:55 26° 227° (SW) 05:03:40 .
STARS 26 Jul 05:00:30 05:02:21 12° 63° (ENE) 05:04:10 437.465
MOZHAYETS 4 26 Jul 05:37:00 05:38:52 12° 269° (W) 05:40:45
PCSat 26 Jul 05:44:51 05:50:14 74° 116° (ESE) 05:55:40 145.827
ITAMSAT 1 26 Jul 06:06:39 06:11:15 32° 292° (WNW) 06:15:48 435.822/435.867
KKS-1 26 Jul 06:07:09 06:11:30 50° 260° (W) 06:15:53 437.445
CUBESAT XI-V 26 Jul 06:12:06 06:15:56 26° 265° (W) 06:19:49 437.345
